Weather History for MMUN - August, 2013

Change the Weather History Date:

Thursday, August 29, 2013

  Actual Average Record
Temperature  
Mean Temperature 80 °F -  
Max Temperature 87 °F 89 °F 93 °F (1999)
Min Temperature 73 °F 73 °F 69 °F (2002)
Cooling Degree Days 15    
Growing Degree Days 30 (Base 50)    
Moisture  
Dew Point 75 °F    
Average Humidity 84    
Maximum Humidity 100    
Minimum Humidity 62    
Precipitation  
Precipitation 0.00 in - - ()
Sea Level Pressure  
Sea Level Pressure 29.98 in    
Wind  
Wind Speed 2 mph ()    
Max Wind Speed 9 mph    
Max Gust Speed -    
Visibility 6.7 miles    
Events      
Averages and records for this station are not official NWS values.
T = Trace of Precipitation, MM = Missing Value Source: Averaged Metar Reports

Daily Weather History Graph

Daily Weather History Graph

Search for Another Location

Airport or City:

Trip Planner

Search our weather history database for the weather conditions in past years. The results will help you decide how hot, cold, wet, or windy it might be!

Date:

Astronomy

Aug. 29, 2013 Rise Set
Actual Time 6:30 AM CDT 7:05 PM CDT
Civil Twilight 6:07 AM CDT 7:28 PM CDT
Nautical Twilight 5:41 AM CDT 7:54 PM CDT
Astronomical Twilight 5:14 AM CDT 8:21 PM CDT
Moon 12:43 AM CDT (8/29) 2:11 PM CDT (8/29)
Length of Visible Light 13h 20m
Length of Day
12h 35m
Last Quarter, 38% of the Moon is Illuminated
Aug 29
Last Quarter
Sep 5
New
Sep 12
First Quarter
Sep 19
Full
Sep 26
Last Quarter

Hourly Weather History & Observations

Time (CDT) Temp. Heat Index Dew Point Humidity Pressure Visibility Wind Dir Wind Speed Gust Speed Precip Events Conditions
12:46 AM 75.2 °F - 73.4 °F 94% 29.98 in 6.0 mi Calm Calm - N/A   Mostly Cloudy
1:40 AM 73.4 °F - 73.4 °F 100% 29.99 in 6.0 mi Calm Calm - N/A   Mostly Cloudy
2:41 AM 73.4 °F - 73.4 °F 100% 29.97 in 6.0 mi Calm Calm - N/A   Mostly Cloudy
3:41 AM 73.4 °F - 73.4 °F 100% 29.95 in 6.0 mi Calm Calm - N/A   Scattered Clouds
4:43 AM 73.4 °F - 73.4 °F 100% 29.96 in 6.0 mi Calm Calm - N/A   Scattered Clouds
5:42 AM 73.4 °F - 73.4 °F 100% 29.96 in 6.0 mi Calm Calm - N/A   Scattered Clouds
6:48 AM 73.4 °F - 71.6 °F 94% 29.96 in 6.0 mi Calm Calm - N/A   Scattered Clouds
7:47 AM 77.0 °F - 75.2 °F 94% 30.00 in 6.0 mi Calm Calm - N/A   Scattered Clouds
8:41 AM 82.4 °F 92.4 °F 78.8 °F 89% 30.00 in 7.0 mi North 2.3 mph - N/A   Scattered Clouds
9:44 AM 86.0 °F 93.4 °F 73.4 °F 66% 30.02 in 7.0 mi North 2.3 mph - N/A   Scattered Clouds
10:41 AM 86.0 °F 95.1 °F 75.2 °F 70% 30.02 in 7.0 mi East 6.9 mph - N/A   Scattered Clouds
11:45 AM 86.0 °F 95.1 °F 75.2 °F 70% 30.01 in 8.0 mi East 6.9 mph - N/A   Scattered Clouds
12:46 PM 87.8 °F 95.6 °F 73.4 °F 62% 30.00 in 8.0 mi East 9.2 mph - N/A   Scattered Clouds
1:45 PM 87.8 °F 97.6 °F 75.2 °F 66% 29.99 in 8.0 mi NE 4.6 mph - N/A   Scattered Clouds
2:45 PM 84.2 °F 94.1 °F 77.0 °F 79% 29.97 in 7.0 mi ENE 8.1 mph - N/A   Mostly Cloudy
3:49 PM 84.2 °F 92.3 °F 75.2 °F 74% 29.94 in 7.0 mi ENE 4.6 mph - N/A   Mostly Cloudy
4:45 PM 84.2 °F 94.1 °F 77.0 °F 79% 29.94 in 7.0 mi NE 4.6 mph - N/A   Mostly Cloudy
5:40 PM 82.4 °F 89.5 °F 75.2 °F 79% 29.95 in 7.0 mi ENE 3.5 mph - N/A   Mostly Cloudy
6:41 PM 82.4 °F 89.5 °F 75.2 °F 79% 29.96 in 7.0 mi ENE 3.5 mph - N/A   Mostly Cloudy
7:40 PM 80.6 °F 86.2 °F 75.2 °F 84% 29.98 in 7.0 mi NNE 2.3 mph - N/A   Mostly Cloudy
8:41 PM 82.4 °F 89.5 °F 75.2 °F 79% 29.99 in 7.0 mi ENE 5.8 mph - N/A   Mostly Cloudy
9:41 PM 82.4 °F 89.5 °F 75.2 °F 79% 30.00 in 6.0 mi ENE 3.5 mph - N/A   Overcast
10:41 PM 80.6 °F 86.2 °F 75.2 °F 84% 30.00 in 6.0 mi ENE 3.5 mph - N/A   Mostly Cloudy
11:45 PM 80.6 °F 86.2 °F 75.2 °F 84% 30.00 in 6.0 mi ENE 3.5 mph - N/A   Mostly Cloudy